Theta_e
310 310 311 311 311 312 313 315 316 317 318 319 320 321 322 324 325 326 326 327 329 330 331 332 334 335 336 335 334 333 333 332 332 332 331 330 328 328 327 327 327 328 329 329 329 328 328 327 327 327 328 330
310 311 311 312 312 313 313 315 316 317 317 318 319 320 321 322 324 325 325 326 327 328 330 332 333 335 335 335 335 334 334 334 332 332 332 331 330 329 328 327 326 326 327 327 328 328 328 328 327 326 329 330
311 311 312 312 313 313 314 314 315 316 317 317 318 319 320 321 322 323 324 325 325 325 327 330 332 334 334 334 335 334 334 334 334 333 332 332 331 330 329 327 326 325 325 325 326 327 327 327 326 326 328 328
311 311 312 312 313 313 313 314 314 315 316 317 317 318 318 320 321 322 322 323 323 324 325 327 329 331 333 333 333 333 334 334 334 334 333 332 332 330 329 328 326 325 325 325 325 326 326 326 326 326 327 327
311 311 311 312 312 313 313 313 314 314 315 316 316 317 318 319 319 321 321 321 322 323 324 325 327 329 331 331 332 332 332 333 333 333 333 332 332 331 329 328 327 326 326 326 326 326 326 326 326 325 325 326
310 310 311 312 312 313 313 313 313 314 314 314 315 316 317 318 318 319 321 321 321 322 324 324 326 327 328 329 330 330 331 331 331 332 332 331 332 331 329 328 327 326 326 326 326 327 327 327 326 325 326 327
310 310 311 311 312 312 313 313 313 314 314 314 314 315 316 316 317 318 319 320 321 322 323 323 324 325 326 327 328 329 329 330 330 331 331 330 331 330 329 328 327 326 326 327 327 328 327 327 326 326 326 326
309 310 311 311 311 312 312 312 313 313 313 313 313 314 314 315 317 317 318 319 320 320 321 322 322 323 324 325 326 327 328 328 329 329 329 329 329 329 329 328 327 327 328 328 328 327 327 326 325 325 325 326
309 310 310 311 311 311 312 312 312 312 312 312 312 313 314 315 316 317 316 317 319 319 319 319 320 320 321 322 323 324 325 327 327 327 327 328 328 328 328 328 327 327 328 328 327 327 326 326 325 325 325 325
308 309 310 310 310 311 311 311 311 311 311 311 312 312 313 314 315 315 315 316 317 317 318 318 318 318 318 319 320 322 323 324 324 325 325 326 326 326 325 326 326 326 327 327 327 326 325 325 324 324 325 324
307 308 309 309 310 310 310 310 310 311 311 311 311 311 312 313 313 314 314 315 315 316 316 317 317 316 316 317 318 319 320 321 322 323 323 324 324 324 323 324 325 325 325 326 325 324 323 323 322 322 322 321
306 307 307 308 308 309 309 309 309 310 310 310 310 311 311 311 312 312 313 313 314 314 315 315 315 315 315 316 317 317 318 319 320 321 321 322 322 322 322 322 322 322 323 323 322 321 320 320 320 319 318 318
305 306 306 307 307 308 308 308 308 309 309 310 310 310 310 310 311 312 312 312 313 313 313 314 314 314 315 315 315 315 316 317 318 319 319 320 320 320 320 320 319 319 319 319 319 318 318 318 317 316 316 316
304 305 305 305 306 307 307 307 307 308 308 309 309 309 309 309 309 310 311 311 311 312 312 313 314 314 314 314 313 313 313 315 315 316 317 317 318 318 317 317 317 316 316 317 316 316 315 315 315 315 315 315
303 304 304 304 304 305 305 306 306 306 307 307 308 308 308 309 309 309 309 310 310 310 311 311 312 313 313 312 312 312 312 313 313 314 314 315 315 315 315 315 315 314 314 314 313 313 312 312 312 313 313 313
302 302 302 303 303 303 304 304 304 304 305 305 306 306 307 308 308 308 308 309 309 309 309 309 310 311 311 310 310 310 311 311 312 312 312 313 313 313 313 313 312 312 311 311 311 310 310 310 310 310 310 311
301 301 301 301 301 302 303 303 303 303 303 303 304 304 305 306 306 307 307 308 308 308 307 307 308 309 309 309 308 308 309 310 310 310 310 311 311 311 311 311 310 309 309 308 308 307 307 307 307 307 307 307
300 300 300 300 300 301 302 302 302 302 302 302 302 302 303 304 304 304 305 306 307 306 305 305 306 308 308 307 307 307 307 308 308 308 309 308 308 309 309 309 308 307 307 306 305 305 305 305 304 304 304 304
299 299 299 299 299 299 300 300 300 300 301 301 301 300 300 301 302 302 303 304 304 304 304 303 304 306 307 306 305 305 306 306 306 307 308 308 307 307 307 307 306 306 305 305 304 304 303 303 303 303 302 302
297 298 298 298 298 298 298 299 299 298 298 299 299 298 298 299 300 300 301 302 302 302 302 302 302 303 304 304 303 303 304 304 304 305 305 306 306 305 305 305 304 304 304 303 303 302 302 302 301 302 302 301
295 296 297 297 297 297 297 297 298 297 296 297 297 297 296 297 298 298 298 299 300 299 300 300 300 301 302 302 302 302 302 302 303 303 304 304 305 304 304 304 303 303 302 301 301 301 300 300 300 300 300 300
294 294 295 295 296 296 296 296 296 295 296 296 295 295 295 296 296 296 297 297 298 298 298 299 297 297 300 300 300 301 301 301 301 302 302 302 303 303 302 303 303 302 301 300 299 299 299 299 299 299 299 298
293 293 293 293 294 294 293 293 294 294 294 294 294 294 294 295 295 295 296 296 297 297 297 297 294 294 296 298 298 299 299 299 299 299 300 301 301 301 301 301 301 300 300 299 298 298 297 297 297 297 296 297
293 293 293 293 292 292 291 291 291 292 292 292 292 292 293 293 294 294 295 295 295 296 296 296 294 293 294 295 295 297 297 296 296 296 297 298 299 299 300 299 298 298 298 298 297 296 296 296 296 295 295 294
291 291 292 292 291 290 290 289 289 289 290 290 290 291 292 292 292 293 293 294 294 294 295 295 295 294 294 294 293 293 294 295 295 295 295 296 296 297 297 296 296 296 296 297 297 296 296 295 294 294 294 293
290 289 290 290 289 289 288 287 287 287 288 289 289 290 291 291 291 291 292 293 293 293 293 293 293 293 293 294 293 291 292 294 294 295 295 294 294 295 295 294 294 295 295 296 296 296 296 295 294 292 291 290
289 288 288 288 288 288 287 286 286 286 287 288 288 289 289 290 290 290 290 291 291 291 291 292 292 291 291 292 292 290 291 293 293 294 294 293 293 294 294 294 294 294 294 294 295 296 297 297 296 295 292 290
287 287 287 287 287 287 286 286 286 286 286 286 287 287 288 289 289 289 289 290 290 289 289 290 290 290 290 291 291 289 289 291 292 292 293 292 292 292 293 293 293 293 293 293 294 296 297 296 297 298 296 293
287 287 287 287 287 287 287 287 286 286 285 285 285 285 286 287 287 288 288 288 288 288 288 288 289 289 289 289 290 288 287 288 289 290 291 291 291 290 291 292 292 292 292 292 292 293 295 296 298 297 295 294
286 286 287 287 287 288 288 287 285 285 284 283 283 284 285 286 286 287 287 287 287 287 287 287 288 288 288 288 289 288 287 287 288 288 289 289 290 290 290 290 291 292 291 291 292 291 292 293 294 293 292 294
285 285 285 286 286 286 286 286 285 283 283 283 283 284 285 285 285 286 286 286 286 287 287 286 286 287 287 287 288 287 286 287 287 287 287 288 288 289 289 290 290 290 290 291 291 291 290 291 291 291 291 292
Wind_Speed
16 17 17 17 17 17 16 16 16 16 16 16 16 16 16 16 16 16 15 15 15 14 13 15 15 16 21 25 23 22 25 25 25 24 23 23 22 21 20 21 22 22 23 22 23 23 22 21 21 21 21 20
16 16 16 17 17 16 16 16 15 15 15 15 16 16 16 16 15 15 15 14 14 13 12 13 15 15 18 23 23 22 26 28 28 26 25 25 24 23 21 21 21 21 22 22 23 24 23 22 21 21 21 22
14 15 15 15 16 16 16 15 15 15 15 15 15 15 16 15 15 15 14 14 14 14 12 11 13 16 17 20 23 25 26 28 30 29 27 26 26 25 23 22 21 21 21 20 21 22 22 21 20 20 21 24
12 14 14 14 15 15 15 16 16 16 16 15 15 16 15 15 16 16 14 15 15 14 13 11 11 14 16 18 22 25 27 28 30 32 30 28 27 27 25 23 22 21 21 20 20 21 21 20 19 19 21 24
12 14 14 14 14 15 16 16 16 17 17 16 17 17 17 16 16 17 16 16 16 15 14 13 12 12 14 16 18 21 25 27 29 32 33 30 29 29 28 25 23 22 21 21 20 20 20 19 19 19 20 22
13 15 14 14 15 15 16 16 17 17 17 17 17 17 18 17 16 17 17 16 16 15 14 13 13 12 13 14 16 18 21 23 26 29 31 33 33 30 29 26 22 21 22 22 22 21 19 18 18 19 20 21
13 14 13 14 14 15 16 16 17 17 17 18 18 17 18 17 16 17 16 16 16 15 14 13 13 12 12 13 14 16 18 21 23 25 26 30 31 28 27 24 22 23 23 23 22 20 18 17 18 20 20 21
13 12 12 13 13 14 14 15 16 18 18 18 19 19 19 17 17 15 13 15 17 15 16 14 13 12 12 12 12 14 15 17 19 19 20 22 24 24 25 24 23 23 22 22 22 19 19 20 21 21 22 24
11 11 11 11 12 12 12 13 15 17 18 18 19 20 19 17 17 15 12 14 17 16 15 13 13 13 13 13 12 12 12 13 15 13 13 17 20 21 21 22 21 19 19 21 21 20 21 22 21 21 23 24
10 10 10 10 11 11 11 12 14 16 17 17 18 19 19 18 18 17 15 14 15 15 14 14 14 13 14 15 14 14 13 12 11 9 9 11 14 15 13 14 14 14 16 19 20 21 21 20 20 21 21 21
9 9 9 9 10 10 10 11 12 13 15 16 16 17 18 19 19 19 18 15 16 16 15 16 15 13 13 15 16 15 14 12 9 7 6 6 7 9 7 8 10 12 14 17 18 18 17 17 18 19 19 19
7 8 9 9 10 10 10 11 11 11 13 14 15 16 17 18 18 19 18 17 17 17 16 16 15 13 13 14 15 15 14 12 9 7 6 4 5 5 5 6 8 9 11 13 14 14 14 14 15 15 14 14
6 7 9 10 10 9 9 11 12 11 12 13 14 15 17 17 17 17 17 18 17 17 16 16 15 15 15 15 14 14 14 13 11 9 7 5 4 5 5 5 6 6 7 9 10 11 12 13 13 13 11 11
5 7 9 10 10 10 10 11 11 12 13 13 13 14 15 16 17 16 16 16 16 16 16 16 16 15 15 15 14 14 15 14 13 10 8 6 4 4 4 4 5 5 6 8 9 10 10 11 11 11 10 10
6 8 9 10 10 11 11 11 12 13 13 14 14 14 13 14 16 16 16 16 16 15 15 15 15 15 15 15 15 14 15 15 14 12 9 7 5 3 3 3 4 5 6 7 7 8 9 9 9 9 9 9
7 9 10 11 11 11 12 12 13 14 14 15 14 13 13 13 13 14 14 15 15 15 15 15 15 15 15 14 14 14 15 15 14 13 11 8 6 4 4 3 3 4 5 5 6 7 7 7 7 7 7 7
7 8 9 10 11 11 12 13 13 14 15 15 14 13 14 14 13 12 13 13 14 14 14 14 14 15 15 13 12 11 12 13 13 12 10 9 7 5 4 3 2 2 3 3 4 4 5 5 5 5 5 5
8 8 9 10 11 11 12 12 13 14 14 14 14 15 15 14 13 12 12 12 12 13 12 12 13 14 14 13 11 10 10 10 12 11 10 9 7 5 4 2 1 1 1 1 1 1 2 2 2 2 2 2
8 9 9 10 10 11 11 12 13 13 14 14 14 15 15 14 14 14 13 13 12 13 13 12 13 13 13 12 11 11 10 9 9 11 11 9 7 5 4 3 2 1 1 1 1 1 2 2 3 3 3 4
7 8 9 9 10 11 12 12 12 14 14 14 14 16 16 15 15 15 14 14 13 13 13 13 13 13 12 11 10 10 11 10 9 10 10 9 7 5 4 4 3 2 2 2 2 2 2 2 2 3 3 4
4 6 8 9 9 10 11 12 12 14 15 15 15 16 16 16 15 16 15 15 15 14 14 14 13 12 12 12 10 10 10 11 11 10 9 9 7 5 4 3 3 2 2 2 2 2 2 3 3 3 3 4
2 3 5 7 8 9 10 11 12 13 14 15 15 15 16 16 16 16 16 16 16 15 15 15 12 11 12 12 12 11 9 10 11 11 10 9 7 6 4 3 2 2 2 3 3 4 4 4 4 4 4 4
3 3 3 4 7 9 11 12 13 14 14 14 15 15 15 16 16 17 16 16 16 16 16 16 13 11 12 13 13 12 11 11 11 10 10 9 8 7 5 3 2 2 2 3 3 4 4 4 5 4 5 5
4 3 4 4 5 7 10 12 14 14 15 15 15 15 16 16 17 17 16 16 17 16 16 16 14 12 12 12 12 14 14 14 12 11 10 9 8 7 6 4 3 3 3 3 4 4 5 5 5 5 5 5
5 5 4 4 5 6 7 10 12 14 15 15 16 16 17 17 18 17 17 17 17 17 17 17 16 15 14 13 12 12 13 13 12 11 10 9 8 8 6 4 3 3 3 3 4 4 5 5 5 5 5 4
6 6 4 3 4 5 6 8 10 13 15 16 16 17 17 18 18 18 18 17 18 18 18 17 18 17 16 15 12 10 11 12 12 12 11 9 8 8 8 5 2 3 3 4 5 5 4 4 4 4 3 4
5 5 4 3 3 4 5 6 7 11 16 16 16 17 18 18 18 19 19 18 18 19 19 18 18 17 16 16 13 10 11 13 13 13 12 11 9 7 7 7 5 4 5 6 7 6 3 2 3 3 1 3
4 4 4 3 4 4 6 6 6 9 13 15 17 18 18 18 18 19 19 18 19 19 19 18 18 17 17 16 14 11 10 12 13 13 12 11 10 8 7 7 6 6 6 7 6 4 3 3 3 2 2 4
6 5 5 4 4 4 5 7 8 8 10 13 16 17 18 18 18 18 18 18 18 18 18 18 17 17 17 16 15 12 10 10 11 12 11 10 10 9 8 6 6 6 7 7 5 4 3 3 2 2 6 7
8 7 6 5 4 4 4 5 7 8 8 11 13 15 16 16 16 16 17 17 17 17 17 17 17 17 16 16 16 14 12 11 11 11 11 10 9 9 8 6 6 6 6 7 7 5 3 3 3 3 6 7
9 8 7 7 6 6 5 5 6 7 8 10 12 13 14 14 15 15 15 15 15 15 16 16 16 16 16 16 16 15 14 14 13 12 11 10 9 8 7 7 6 6 7 6 6 6 5 6 7 6 4 4
Wind_Direction
349 348 345 341 338 333 330 327 327 328 329 327 324 323 322 320 318 316 314 313 310 303 290 277 264 259 253 245 249 250 248 250 253 256 257 255 254 254 256 257 257 257 258 259 262 266 266 263 260 255 247 243
350 349 347 345 343 339 335 333 331 332 333 333 331 329 328 326 326 324 321 323 322 315 296 276 262 256 257 251 250 252 252 251 250 254 256 256 256 255 255 257 256 256 259 259 260 264 266 267 267 261 251 247
352 350 350 347 346 345 344 342 340 339 339 340 339 337 337 336 335 334 332 332 329 321 310 289 268 258 261 259 256 255 254 253 251 251 253 255 255 253 253 254 254 255 257 259 259 263 266 268 269 266 255 252
356 352 351 351 352 351 350 348 347 348 347 347 345 344 346 346 346 347 348 343 336 329 324 312 287 269 263 263 262 260 258 257 254 250 250 252 252 250 250 251 252 253 255 257 259 263 266 268 269 266 257 255
359 357 356 359 2 358 357 354 354 356 354 353 353 352 353 354 355 356 359 353 345 339 333 323 308 290 275 268 267 267 265 265 264 256 248 248 252 249 245 247 248 250 253 255 258 261 263 265 267 266 260 257
1 2 2 5 8 7 7 4 4 5 2 2 0 359 0 0 358 359 2 360 355 349 340 326 315 306 296 285 278 275 272 272 273 266 257 252 252 246 239 241 245 251 254 253 255 257 258 261 264 265 261 255
5 6 6 5 9 13 14 12 14 16 14 11 6 2 3 1 358 358 360 0 360 356 350 341 329 318 310 304 296 290 283 280 277 274 271 261 249 238 233 237 244 251 251 248 249 251 256 260 260 259 258 255
8 9 8 4 6 13 16 15 19 20 18 16 13 11 8 5 4 2 360 1 1 359 357 355 349 340 330 321 314 310 303 297 293 288 282 263 245 237 236 238 240 243 244 246 250 254 260 260 256 253 254 255
8 7 6 2 2 10 17 15 15 14 12 11 14 17 15 12 12 7 3 4 5 4 2 1 360 359 360 352 342 341 335 324 319 308 280 255 242 239 240 239 239 244 247 247 250 253 254 252 250 248 248 249
6 3 4 4 1 7 12 10 11 9 6 7 12 16 16 16 17 14 12 12 12 13 12 11 8 6 11 11 7 5 1 349 334 314 279 256 245 241 242 241 242 252 252 244 243 244 245 245 245 244 243 244
10 5 8 9 8 11 13 12 14 12 8 11 13 13 13 16 21 24 22 22 23 24 24 21 17 13 15 19 19 18 16 9 355 337 312 282 260 252 253 253 247 249 247 241 241 243 244 244 241 241 239 239
16 14 17 20 20 18 20 25 27 24 21 19 19 16 13 14 19 25 26 27 28 27 29 29 26 23 21 23 26 26 26 24 15 3 346 313 281 264 256 253 245 241 242 242 245 247 247 245 241 240 238 236
21 23 26 31 29 24 26 31 30 32 34 26 21 18 14 13 16 21 24 29 31 28 30 32 32 32 29 28 28 27 27 27 21 11 2 342 312 290 277 264 255 246 243 244 244 245 244 242 241 242 244 243
32 37 37 39 34 31 35 34 30 32 34 28 23 19 14 14 17 22 25 28 31 30 29 31 33 33 33 32 30 28 25 25 21 13 7 358 337 309 289 274 266 254 243 240 237 236 235 234 235 237 242 244
46 48 45 45 38 33 37 33 30 30 29 27 24 21 20 18 16 19 25 31 33 31 30 30 31 32 32 32 30 30 27 23 21 16 10 2 349 328 304 279 260 246 236 230 226 225 225 226 225 229 234 238
52 49 44 45 41 36 37 34 30 30 29 29 25 21 24 22 14 13 19 27 31 32 32 30 29 29 28 28 26 28 29 25 22 19 15 8 357 343 324 299 259 235 226 218 213 214 215 219 222 227 232 236
56 52 43 44 46 39 38 36 31 29 28 29 27 23 22 19 15 15 17 20 25 28 30 29 30 29 27 25 21 22 26 26 25 21 18 16 7 355 340 316 278 230 219 209 204 210 216 220 222 226 229 232
61 59 52 48 45 39 35 32 31 31 30 27 27 29 25 19 20 23 23 24 27 29 26 25 28 31 31 26 19 18 21 25 27 24 22 20 11 3 358 347 318 242 229 226 221 232 263 271 273 278 266 263
62 59 56 50 44 42 38 34 33 34 33 27 26 32 32 27 29 30 30 30 33 36 35 31 28 29 31 27 19 19 22 26 29 28 23 20 15 11 11 19 33 22 10 4 350 348 341 329 323 322 326 333
60 57 53 49 46 46 44 40 36 35 37 33 31 34 33 31 33 34 34 35 36 39 40 39 34 30 30 28 22 21 27 29 31 31 24 20 18 15 16 26 38 37 35 24 12 10 356 345 339 335 334 334
48 57 55 50 44 41 40 39 39 39 38 36 34 33 33 32 33 34 34 36 38 39 38 39 39 37 36 37 32 26 27 29 31 31 26 21 19 18 20 22 24 31 37 31 22 17 9 3 355 351 348 343
15 38 48 46 43 45 45 44 45 43 38 36 34 33 32 32 34 35 33 35 37 38 38 37 32 31 37 41 41 37 34 32 30 31 29 24 21 22 22 13 6 13 26 24 18 13 7 1 354 348 345 342
7 10 24 30 38 46 48 47 47 46 42 40 37 37 35 34 36 35 34 36 36 36 39 38 27 21 29 35 38 41 42 39 34 30 28 27 25 22 19 20 27 25 25 20 8 4 1 355 351 346 341 336
15 10 19 21 24 33 38 42 46 47 46 45 42 41 39 38 39 37 37 39 39 38 40 40 35 29 29 32 33 35 38 38 35 32 28 27 26 20 16 20 39 49 44 22 356 349 350 341 333 332 331 330
23 18 13 14 21 27 27 33 42 46 46 46 43 42 41 39 39 38 38 40 41 40 40 41 41 38 36 38 36 32 35 36 35 35 29 23 22 20 13 11 35 40 17 357 347 342 336 322 311 309 307 305
22 21 14 9 23 31 33 35 41 45 47 46 44 42 41 39 38 37 36 39 42 40 39 41 40 39 38 41 39 32 35 37 37 37 32 26 19 15 13 12 10 8 3 350 341 334 317 304 297 293 296 306
28 27 31 37 44 43 49 51 44 45 47 46 45 43 42 40 38 38 36 38 42 41 39 40 41 40 37 39 40 33 32 36 37 34 34 33 22 10 13 16 1 350 1 353 338 322 302 331 332 296 328 352
38 31 38 47 58 61 63 62 51 43 42 44 46 44 42 41 40 39 38 38 42 43 40 40 42 42 40 41 41 37 34 36 37 33 32 33 28 20 14 12 2 351 348 346 344 336 320 330 316 289 35 11
59 46 41 37 44 51 52 48 40 34 31 34 40 42 41 40 40 40 40 41 43 44 42 40 40 41 41 41 41 40 35 34 36 36 33 30 30 30 19 3 357 356 350 343 343 344 327 315 293 328 1 345
68 59 50 49 48 40 36 35 31 28 25 28 36 41 42 40 40 40 40 41 42 43 43 42 40 40 40 40 41 41 38 38 37 37 35 31 29 29 22 8 358 359 356 346 337 328 308 290 293 322 342 333
66 63 54 58 62 55 48 46 38 35 40 43 44 45 46 45 42 41 41 41 40 41 43 43 41 41 40 39 39 38 38 40 40 38 37 34 29 23 18 20 16 4 356 352 346 339 323 298 294 295 300 303